Tracking 30505 objects as of 23-May-2025
HD Live streaming from Space Station
objects crossing your sky now

GAOFEN 9 04

Track GAOFEN 9 04 now!
10-day predictions


NORAD ID: 46025
Int'l Code: 2020-054A
Perigee: 481.6 km
Apogee: 497.3 km
Inclination: 97.3 °
Period: 94.3 minutes
Semi major axis: 6860 km
RCS: Unknown
Launch date: August 6, 2020
Source: People's Republic of China (PRC)
Launch site: Jiuquan Satellite Launch Center, China (JSC)
Your satellite tracking list
Your tracking list is empty




NASA's NSSDC Master Catalog

Two Line Element Set (TLE):
1 46025U 20054A   25143.49272764  .00006751  00000-0  25070-3 0  9990
2 46025  97.2895 214.5618 0011398  65.6908 294.5520 15.27821707266687
Source of the keplerian elements: AFSPC